This is the latest recevied weather packets stored in our database for station/object WD4IXD-WX. If no packets are shown the sender has not sent any weather packets the latest 10 day(s).
| Time | Temp. | Humidity | Pressure | Rain* | Wind** | Luminosity | Snow |
|---|---|---|---|---|---|---|---|
| 1777821904 | 6.67° C | 40% | 1022.3 hPa | 0 mm | - | 635 W/m² | - |
| 1777821604 | 6.67° C | 41% | 1022.3 hPa | 0 mm | - | 622 W/m² | - |
| 1777821304 | 6.67° C | 39% | 1022.3 hPa | 0 mm | - | 605 W/m² | - |
| 1777821004 | 6.67° C | 41% | 1022.4 hPa | 0 mm | - | 545 W/m² | - |
| 1777820704 | 6.67° C | 41% | 1022.4 hPa | 0 mm | - | 480 W/m² | - |
| 1777820404 | 6.11° C | 43% | 1022.4 hPa | 0 mm | - | 392 W/m² | - |
| 1777820104 | 6.67° C | 43% | 1022.4 hPa | 0 mm | - | 299 W/m² | - |
| 1777819804 | 6.11° C | 42% | 1022.4 hPa | 0 mm | - | 459 W/m² | - |
| 1777819503 | 6.11° C | 44% | 1022.4 hPa | 0 mm | - | 554 W/m² | - |
| 1777819204 | 6.11° C | 43% | 1022.4 hPa | 0 mm | - | 480 W/m² | - |
| 1777818904 | 5.56° C | 45% | 1022.4 hPa | 0 mm | - | 527 W/m² | - |
| 1777818604 | 5.56° C | 44% | 1022.4 hPa | 0 mm | - | 420 W/m² | - |
| 1777818303 | 5.56° C | 46% | 1022.4 hPa | 0 mm | - | 425 W/m² | - |
| 1777818003 | 5.56° C | 47% | 1022.4 hPa | 0 mm | - | 420 W/m² | - |
| 1777817704 | 5° C | 46% | 1022.4 hPa | 0 mm | - | 422 W/m² | - |
| 1777817404 | 5° C | 47% | 1022.3 hPa | 0 mm | - | 353 W/m² | - |
| 1777817103 | 4.44° C | 45% | 1022.3 hPa | 0 mm | - | 325 W/m² | - |
| 1777816804 | 4.44° C | 46% | 1022.3 hPa | 0 mm | - | 343 W/m² | - |
| 1777816505 | 3.89° C | 48% | 1022.4 hPa | 0 mm | - | 276 W/m² | - |
| 1777816204 | 3.89° C | 47% | 1022.3 hPa | 0 mm | - | 223 W/m² | - |
| 1777815903 | 3.33° C | 48% | 1022.3 hPa | 0 mm | - | 255 W/m² | - |
| 1777815604 | 3.33° C | 47% | 1022.3 hPa | 0 mm | - | 237 W/m² | - |
| 1777815304 | 3.33° C | 48% | 1022.4 hPa | 0 mm | - | 158 W/m² | - |
| 1777815004 | 2.78° C | 48% | 1022.3 hPa | 0 mm | - | 141 W/m² | - |
| 1777814703 | 2.78° C | 47% | 1022.4 hPa | 0 mm | - | 127 W/m² | - |
* Rain latest hour (hover to see other rain measurements)
** Current wind speed in m/s (hover to see current wind gust speed)